Weather History for Altus AFB, OK

Change the Weather History Date:

Wednesday, March 13, 2013

  Actual Average Record
Temperature  
Mean Temperature 48 °F -  
Max Temperature 67 °F 60 °F 91 °F (2002)
Min Temperature 30 °F 37 °F 21 °F (2014)
Degree Days  
Heating Degree Days 16    
Moisture  
Dew Point 35 °F    
Average Humidity 66    
Maximum Humidity 98    
Minimum Humidity 31    
Precipitation  
Precipitation 0.00 in - - ()
Sea Level Pressure  
Sea Level Pressure 30.36 in    
Wind  
Wind Speed 6 mph (SE)    
Max Wind Speed 14 mph    
Max Gust Speed 20 mph    
Visibility 10 miles    
Events      
Averages and records for this station are not official NWS values.
T = Trace of Precipitation, MM = Missing Value Source: NWS Daily Summary

Daily Weather History Graph

Daily Weather History Graph

Search for Another Location

Airport:

Trip Planner

Search our weather history database for the weather conditions in past years. The results will help you decide how hot, cold, wet, or windy it might be!

Date:

Astronomy

Mar. 13, 2013 Rise Set
Actual Time 7:49 AM CDT 7:43 PM CDT
Civil Twilight 7:24 AM CDT 8:08 PM CDT
Nautical Twilight 6:55 AM CDT 8:37 PM CDT
Astronomical Twilight 6:26 AM CDT 9:07 PM CDT
Moon 8:36 AM CDT (3/13) 9:53 PM CDT (3/13)
Length of Visible Light 12h 43m
Length of Day
11h 53m
Waxing Crescent, 4% of the Moon is Illuminated
Mar 13
Waxing Crescent
Mar 19
First Quarter
Mar 27
Full
Apr 2
Last Quarter
Apr 10
New

Hourly Weather History & Observations

Time (CDT) Temp. Windchill Dew Point Humidity Pressure Visibility Wind Dir Wind Speed Gust Speed Precip Events Conditions
12:58 AM 40.1 °F 36.1 °F 35.1 °F 82% 30.37 in 10.0 mi North 5.8 mph - N/A   Clear
1:58 AM 34.7 °F 29.6 °F 33.4 °F 95% 30.38 in 10.0 mi West 5.8 mph - N/A   Clear
2:58 AM 37.8 °F - 32.5 °F 81% 30.38 in 10.0 mi NW 1.2 mph - N/A   Clear
3:58 AM 36.3 °F 32.5 °F 32.7 °F 87% 30.37 in 10.0 mi North 4.6 mph - N/A   Clear
4:58 AM 35.6 °F 30.7 °F 32.7 °F 89% 30.38 in 10.0 mi West 5.8 mph - N/A   Clear
5:58 AM 36.0 °F - 32.5 °F 87% 30.38 in 10.0 mi NW 2.3 mph - N/A   Clear
6:58 AM 30.4 °F 24.5 °F 29.8 °F 98% 30.40 in 10.0 mi NNE 5.8 mph - N/A   Clear
7:58 AM 31.6 °F - 30.7 °F 96% 30.41 in 10.0 mi Calm Calm - N/A   Clear
8:58 AM 36.7 °F - 34.0 °F 90% 30.42 in 10.0 mi Calm Calm - N/A   Clear
9:58 AM 43.7 °F 41.1 °F 39.0 °F 84% 30.43 in 10.0 mi East 4.6 mph - N/A   Clear
10:58 AM 50.4 °F - 37.0 °F 60% 30.45 in 10.0 mi SE 8.1 mph - N/A   Clear
11:58 AM 54.1 °F - 35.1 °F 49% 30.45 in 10.0 mi SSE 9.2 mph - N/A   Clear
12:58 PM 56.7 °F - 35.4 °F 45% 30.42 in 10.0 mi SE 8.1 mph - N/A   Clear
1:58 PM 60.3 °F - 37.0 °F 42% 30.38 in 10.0 mi SSE 9.2 mph - N/A   Clear
2:58 PM 63.1 °F - 36.9 °F 38% 30.35 in 10.0 mi South 10.4 mph 17.3 mph N/A   Clear
3:58 PM 65.8 °F - 36.3 °F 34% 30.30 in 10.0 mi SSE 13.8 mph 19.6 mph N/A   Clear
4:58 PM 66.7 °F - 35.6 °F 32% 30.29 in 10.0 mi South 10.4 mph - N/A   Clear
5:58 PM 67.5 °F - 35.4 °F 31% 30.28 in 10.0 mi South 10.4 mph - N/A   Clear
6:58 PM 65.8 °F - 37.4 °F 35% 30.28 in 10.0 mi SSE 5.8 mph - N/A   Clear
7:58 PM 57.7 °F - 40.3 °F 52% 30.28 in 10.0 mi SSE 4.6 mph - N/A   Clear
8:58 PM 50.2 °F - 37.8 °F 62% 30.28 in 10.0 mi SE 10.4 mph - N/A   Clear
9:58 PM 47.7 °F - 37.0 °F 67% 30.28 in 10.0 mi ESE 4.6 mph - N/A   Clear
10:58 PM 45.0 °F 41.8 °F 36.5 °F 72% 30.28 in 10.0 mi ESE 5.8 mph - N/A   Clear
11:58 PM 42.3 °F 37.9 °F 36.3 °F 79% 30.29 in 10.0 mi ESE 6.9 mph - N/A   Clear